Flag for Poland Weather past 2 weeks in Rybnik, Poland

Now
45 °F

Sprinkles. Broken clouds.


Feels Like: 39 °F
Forecast: 40 / 48 °F
Wind: 10 mph from West

Location: Katowice Airport

Current Time: Mar 27, 2015 at 1:16:26 PM

Latest Report: Mar 27, 2015 at 12:30 PM


Visibility: 4 mi

Pressure: 29.86 "Hg

Humidity: 93%

Dew point: 43 °F

Location of RybnikLocation

Historic Weather in Rybnik — Graph

°F

Rybnik temperature yesterday

Maximum temperature yesterday: 61 °F (at 12:30 PM)
Minimum temperature yesterday: 46 °F (at 11:00 PM)
Average temperature yesterday: 53 °F

Past Weeks' High & Low Weather Summary

 TemperatureHumidityPressure
High66 °F (Mar 25, 2:00 PM)100% (Mar 13, 7:30 PM)30.57 "Hg (Mar 13, 7:30 PM)
Low19 °F (Mar 23, 5:00 AM)25% (Mar 23, 1:30 PM)29.71 "Hg (Mar 27, 4:00 AM)
Average42 °F69%30.17 "Hg
* Reported Mar 12 12:00 Noon — Mar 27 12:00 Noon, Rybnik, Weather by CustomWeather, © 2015

Note: Actual official high and low records may vary slightly from our data, if they occured in-between our weather recording intervals... More about our weather records

Advertising

Rybnik weather history for previous 24 hours

 ConditionsComfort  
Time TempWeatherWind HumidityBarometerVisibility
12:00 PM
Fri, Mar 27
45 °FSprinkles. Broken clouds.12 mph93%29.86 "Hg4 mi
11:30 AM45 °FRain showers. Fog.7 mph93%29.86 "Hg3 mi
11:00 AM45 °FSprinkles. Fog.12 mph93%29.83 "Hg3 mi
10:30 AM45 °FRain showers. Fog.14 mph93%29.83 "Hg2 mi
10:00 AM45 °FSprinkles. Fog.14 mph93%29.83 "Hg2 mi
9:30 AM45 °FSprinkles. Fog.14 mph100%29.80 "Hg2 mi
9:00 AM46 °FRain showers. Fog.13 mph93%29.80 "Hg1 mi
8:30 AM48 °FSprinkles. Fog.12 mph94%29.77 "Hg1 mi
8:00 AM48 °FFog.5 mph100%29.77 "Hg1 mi
7:30 AM48 °FSprinkles. Fog.1 mph94%29.77 "Hg1 mi
7:00 AM46 °FSprinkles. Fog.5 mph100%29.74 "Hg1 mi
6:30 AM46 °FFog.1 mph100%29.74 "Hg2 mi
6:00 AM46 °FFog.3 mph100%29.74 "Hg2 mi
5:30 AM46 °FFog.1 mph100%29.71 "Hg2 mi
5:00 AM46 °FFog.5 mph100%29.71 "Hg2 mi
4:00 AM46 °FFog.2 mph100%29.71 "Hg1 mi
3:30 AM46 °FFog.2 mph100%29.74 "Hg2 mi
3:00 AM48 °FSprinkles. Fog.3 mph94%29.74 "Hg2 mi
2:30 AM48 °FSprinkles. Partly cloudy.3 mph94%29.74 "Hg4 mi
2:00 AM48 °FSprinkles. Fog.3 mph94%29.74 "Hg3 mi
1:30 AM50 °FSprinkles. Passing clouds.6 mph82%29.74 "Hg4 mi
1:00 AM48 °FFog.6 mph94%29.74 "Hg3 mi
12:30 AM50 °FPassing clouds.6 mph88%29.74 "Hg4 mi
12:00 AM48 °FFog.3 mph94%29.74 "Hg2 mi
11:30 PM
Thu, Mar 26
48 °FFog.2 mph94%29.74 "Hg2 mi
11:00 PM46 °FFog.5 mph93%29.74 "Hg2 mi
10:30 PM48 °FFog.3 mph94%29.74 "Hg2 mi
10:00 PM48 °FFog.3 mph94%29.74 "Hg2 mi
9:30 PM50 °FClear.2 mph94%29.74 "Hg4 mi
9:00 PM54 °FPassing clouds.3 mph82%29.74 "Hg4 mi
8:30 PM54 °FPassing clouds.2 mph82%29.74 "Hg4 mi
8:00 PM54 °FPassing clouds.3 mph82%29.77 "HgN/A
7:30 PM54 °FPassing clouds.3 mph88%29.77 "HgN/A
7:00 PM52 °FPassing clouds.2 mph94%29.77 "HgN/A
6:30 PM55 °FPassing clouds.1 mph77%29.77 "HgN/A
6:00 PM55 °FScattered clouds.No wind77%29.74 "HgN/A
5:30 PM55 °FScattered clouds.2 mph77%29.74 "HgN/A
5:00 PM55 °FScattered clouds.1 mph77%29.74 "HgN/A
4:30 PM55 °FPartly sunny.3 mph77%29.74 "HgN/A
4:00 PM55 °FPartly sunny.6 mph77%29.74 "HgN/A
3:30 PM54 °FPartly sunny.5 mph82%29.74 "HgN/A
3:00 PM54 °FSprinkles. Partly sunny.6 mph88%29.74 "HgN/A
2:30 PM55 °FSprinkles. Partly sunny.7 mph77%29.74 "HgN/A
2:00 PM57 °FSprinkles. Partly sunny.10 mph67%29.74 "HgN/A
1:30 PM59 °FPartly sunny.9 mph55%29.74 "HgN/A
1:00 PM59 °FScattered clouds.7 mph55%29.74 "HgN/A
Weather by CustomWeather, © 2015

See weather overviewHow to use our weather pages